Regional Weather Roundup
Issued by NWS

Home | Current Version | Previous Version | Text Only | Print | Product List | Glossary On
Versions: 1 2 3 4 5 6 7 8 9 10 11 12 13 14 15 16 17 18 19 20 21 22 23 24 25 26 27 28 29 30 31 32 33 34 35 36 37 38 39 40 41 42 43 44 45 46 47 48 49 50
000
ASUS43 KFSD 171310
RWRSD

WEATHER ROUNDUP FOR SOUTH DAKOTA
NATIONAL WEATHER SERVICE SIOUX FALLS SD
800 AM CDT TUE MAY 17 2022

NOTE: "FAIR" INDICATES FEW OR NO CLOUDS BELOW 12,000 FEET WITH NO
SIGNIFICANT WEATHER AND/OR OBSTRUCTIONS TO VISIBILITY.


SDZ001>005-009-010-012>017-171400-
NORTHWEST AND NORTH CENTRAL SOUTH DAKOTA

CITY           SKY/WX    TMP DP  RH WIND       PRES   REMARKS
BUFFALO          N/A     54  45  71 S8        29.86R
FAITH            N/A     53  44  71 S21G29    29.87R
MOBRIDGE       PTSUNNY   57  50  77 E8        29.88R
$$

SDZ012>016-024>037-041>051-057-063-072>074-171400-
SOUTHWEST AND SOUTH CENTRAL SOUTH DAKOTA

CITY           SKY/WX    TMP DP  RH WIND       PRES   REMARKS
RAPID CTY ARPT CLOUDY    54  51  90 N5        29.87S
PIERRE         PTSUNNY   56  42  59 SE18G26   29.85F
CUSTER         MOSUNNY   53  46  77 CALM      29.96R
ELLSWORTH AFB  CLOUDY    54  49  82 CALM      29.85S
PHILIP         MOSUNNY   54  45  71 E9        29.84R
PINE RIDGE     SUNNY     53  49  86 CALM      29.87R
SPEARFISH      PTSUNNY   57  48  72 SW6       29.93R
WINNER         PTSUNNY   56  46  69 E14       29.83R
$$

SDZ004>011-016>023-039-040-171400-
NORTHEAST SOUTH DAKOTA

CITY           SKY/WX    TMP DP  RH WIND       PRES   REMARKS
ABERDEEN       LGT RAIN  53  49  86 SE9       29.91F
WATERTOWN      LGT RAIN  49  47  93 SE13      29.95F
BROOKINGS      LGT RAIN  47  47 100 SE13      29.97F
SISSETON         N/A     55  46  71 SE6       29.96R
$$

SDZ017-020-022-023-036>040-048>070-171400-
SOUTHEAST SOUTH DAKOTA

CITY           SKY/WX    TMP DP  RH WIND       PRES   REMARKS
SIOUX FALLS    CLOUDY    55  43  63 E17       29.96F
HURON          PTSUNNY   53  47  79 SE18G30   29.89F
CHAMBERLAIN    PTSUNNY   54  43  65 E15G22    29.86S
MITCHELL       PTSUNNY   54  45  71 E18G28    29.92R
YANKTON        CLOUDY    59  40  49 E12       29.95R
$$

ABBREVIATIONS USED IN REMARKS
   TC - TEMPERATURE IN CELSIUS
  WCI - WIND CHILL INDEX
   HX - HEAT INDEX
  VSB - VISIBILITY




USA.gov is the U.S. government's official web portal to all federal, state and local government web resources and services.